DELTA 1 DEB, 10338

Orbit data source: Space-Track

DELTA 1 DEB, 10338 is space debris in LEO originally from a launch on Thu, 14 Jul 1977 UTC launched from the Air Force Eastern Test Range (AFETR). Debris objects in space refer to the collection of defunct objects orbiting the Earth. Examples of debris include non-operational satellites, rocket bodies, and fragments generated from explosions, collisions, or faulty payload assembly.

Loading next visibility...
Identifier
10338, 1977-065DM
Orbit
LEO
Country
Flag of USUS
Related business
Manufacturer
Unknown
Mission
Spacecraft
Bus & Motor
Unknown
Mass
Unknown
Launch date (UTC)
1977-07-14 (48 years ago)
Launch vehicle
Unknown
Launch site
Air Force Eastern Test Range (AFETR)
Object type
Payload
Rocket body
Debris
Shape & HBR
Unknown shape, 0.1 m
Radar Cross Section
Small (<0.1 m²)

Expand to show TLE details & history
Last TLE update: 18 hours ago

TLE from 18 hours ago
0 DELTA 1 DEB
1 10338U 77065DM  25351.36376669  .00002814  00000-0  52149-3 0  9991
2 10338  29.0602 238.0447 0621016 354.3550   5.0272 13.83094759388559
Epoch: 2025-12-17T08:43Z
TLE epoch observation values (Epoch: 2025-12-17T08:43:49.442Z)
Latitude
-0.00001°
Longitude
20.85399°
Altitude
498.181 km
Speed
7.849 km/s
True Right ascension
15h 52m 10s
True Declination
0° 00' 00"
Sunlit
Object was in daylight at epoch
Visualization orbit readout
Latitude
Unknown
Longitude
Unknown
Altitude
Unknown
Speed
Unknown
Apparent Right ascension
Unknown
Apparent Declination
Unknown
Sunlit
N/A
Visualization observer readout
Local Sidereal Time
01:27:17
Azimuth
Unknown
Elevation
Unknown
Doppler factor
Unknown
Orbital elements
Apogee altitude
1,412.354 km
Perigee altitude
501.327 km
Semi-major axis
7,334.978 km
Eccentricity
0.0621
Inclination
29.0602°
RAAN
238.0447°
Arg. of periapsis
354.355°
True anomaly
5.70285°
Mean anomaly
5.0272°
Eccentric anomaly
5.35955°
Mean motion
3.45498 °/min
Orbital period
104.2 mins
BSTAR
0.00052149
Loading maneuver chart data...
Computing Atmospheric mass density...

Documentation

Showing up to 5 results
|